Location: Douar Ettorche
(35.1734°N, 0.4346°E)
Time: 15:42:22
(UTC+00:00)

Daily predictions for brighter satellites

Satellite Brightness Start Highest point End
(mag) Time Altitude Azimuth Time Altitude Azimuth Time Altitude Azimuth
Cosmos 1818 4.0 17:19:58 10° NNW 17:25:24 71° WSW 17:30:45 10° SSE
Cosmos 1980 Rocket 4.0 17:26:28 10° ESE 17:27:12 10° E 17:27:55 10° E
COSMO-SKYMED 1 3.3 17:25:41 10° NNE 17:29:35 32° E 17:33:27 10° SSE
COBE Rocket 3.8 17:27:23 10° NNE 17:32:10 70° E 17:36:49 10° S
CORIOLIS 4.1 17:28:39 10° SSE 17:33:59 71° ENE 17:39:23 10° N
Cosmos 2227 Rocket 3.2 17:29:26 10° N 17:34:00 25° ENE 17:38:34 10° ESE
Cosmos 2297 Rocket 3.1 17:29:47 10° N 17:34:32 27° ENE 17:39:15 10° ESE
Meteor 2-2 Rocket 4.3 17:29:20 10° S 17:35:13 73° E 17:41:02 10° NNE
YAOGAN 6 3.8 17:34:04 10° ESE 17:36:41 20° ENE 17:39:18 10° NNE
Sich 1 4.0 17:35:59 10° NNE 17:39:39 26° ENE 17:43:19 10° SE
H-2A R/B 2.8 17:36:43 10° SSE 17:40:35 88° WSW 17:44:27 10° NNW
Cosmos 2084 4.3 17:38:11 10° N 17:41:54 28° NE 17:45:33 10° ESE
Envisat 3.2 17:37:58 10° SE 17:42:50 48° ENE 17:47:42 10° N
Cosmos 2369 4.4 17:37:54 10° SSE 17:42:54 34° ESE 17:47:57 10° NE
USA 229 DEB 3.7 17:39:21 10° SSW 17:45:52 85° WNW 17:52:40 10° NNE
USA 229 3.7 17:39:30 10° SSW 17:45:58 85° WNW 17:52:45 10° NNE
NOSS 3-1 (A) 3.3 17:46:05 10° SSW 17:51:16 58° ESE 17:57:07 10° NE
NOSS 3-1 (C) 3.3 17:47:22 10° SSW 17:52:43 81° WNW 17:58:47 10° NNE
YAOGAN 1 3.5 17:49:57 10° SE 17:53:33 26° ENE 17:57:10 10° NNE
NOSS 2-3 (D) 4.4 17:49:57 10° S 17:53:41 30° ESE 17:56:04 19° ENE
Cosmos 1862 4.4 17:51:36 10° NNE 17:54:44 22° ENE 17:57:52 10° SE
Okean-O 2.6 17:52:45 10° SSE 17:57:10 88° WSW 18:01:38 10° NNW
Cosmos 2221 4.4 17:55:51 10° SW 17:59:40 31° WNW 18:03:33 10° NNW
Cosmos 2278 4.2 17:58:18 10° S 18:03:26 37° ESE 18:07:12 17° NE
PSLV R/B 4.3 18:01:36 10° WNW 18:03:40 21° N 18:04:06 20° N
SeaSat 1 2.4 17:58:47 10° SSE 18:03:42 83° ENE 18:08:39 10° NNW
Cosmos 1697 Rocket 2.8 18:01:48 10° S 18:07:15 52° ESE 18:12:06 13° NNE
ATLAS 5 CENTAUR R/B 3.9 18:03:59 10° SSW 18:07:41 20° SSE 18:14:19 12° ESE
Cosmos 1356 Rocket 3.6 18:03:52 10° SSW 18:07:56 75° W 18:12:07 10° N
CZ-4 R/B 4.4 18:07:12 10° SSE 18:11:15 61° ENE 18:15:20 10° N
Lacrosse 4 Rocket 1.2 18:09:11 10° SSW 18:13:16 70° ESE 18:15:35 24° NE
USA 116 4.2 18:10:58 10° NNE 18:15:37 72° ESE 18:20:42 10° S
Cosmos 1680 Rocket 3.6 18:11:49 10° S 18:16:50 51° ESE 18:20:18 20° NE
SKYMED 2 3.9 18:13:26 10° N 18:17:45 66° WNW 18:22:02 10° SSW
ATLAS 5 CENTAUR R/B 2.6 18:14:48 10° NNW 18:20:41 52° NE 18:25:50 17° SE
Cosmos 1805 Rocket 4.4 18:26:18 10° NNW 18:30:31 50° W 18:34:45 10° SSW
ERBS 3.4 18:27:42 10° WSW 18:30:50 38° NW 18:31:44 31° N
NOSS 2-3 (C) 3.4 18:27:18 10° SSW 18:31:31 85° ESE 18:33:14 38° NE
CZ-4 R/B 1.5 18:27:43 10° S 18:31:56 79° WSW 18:36:05 10° NNW
NOAA 11 4.2 18:32:33 10° SSE 18:37:48 55° ENE 18:43:05 10° N
Cosmos 158 Rocket 4.3 18:33:47 10° S 18:38:33 43° ESE 18:38:33 43° ESE
Cosmos 923 Rocket 4.3 18:35:28 10° SSW 18:40:40 68° WNW 18:45:14 14° N
CSL-04 Debris 4.2 18:38:35 10° SSE 18:44:05 85° W 18:49:36 10° NNW
Cosmos 1464 Rocket 4.1 18:39:37 10° N 18:45:46 75° W 18:51:50 10° S
Cosmos 1633 4.2 18:57:05 10° NNW 19:00:24 34° W 19:03:42 10° SSW
Cosmos 1633 Rocket 3.6 18:57:10 10° NNW 19:01:29 56° W 19:05:47 10° S
CSL-04 Rocket 4.3 18:59:15 10° S 19:04:31 54° W 19:09:45 10° NNW
Cosmos 1980 Rocket 2.1 19:04:41 10° SSW 19:10:20 83° WNW 19:10:50 74° N
Cosmos 2227 Rocket 3.4 19:12:53 10° NW 19:18:10 41° WSW 19:23:23 10° S
Cosmos 2297 Rocket 3.6 19:13:27 10° NW 19:18:35 37° WSW 19:23:43 10° S
USA 215 4.0 19:24:41 39° N 19:24:41 39° N 19:29:24 10° NNW
ATLAS 5 CENTAUR R/B 4.3 20:00:04 10° WNW 20:05:14 27° WSW 20:07:33 22° SW
